Year,Month,Day,Hour,Minute,Value (Times are PST for temperature in C)
2019,03,20,00,00,6.10
2019,03,20,00,01,6.20
2019,03,20,00,02,6.30
2019,03,20,00,03,6.50
2019,03,20,00,04,6.60
2019,03,20,00,05,6.70
2019,03,20,00,06,6.80
2019,03,20,00,07,6.80
2019,03,20,00,08,6.80
2019,03,20,00,09,6.80
2019,03,20,00,10,6.80
2019,03,20,00,11,6.70
2019,03,20,00,12,6.60
2019,03,20,00,13,6.60
2019,03,20,00,14,6.50
2019,03,20,00,15,6.50
2019,03,20,00,16,6.50
2019,03,20,00,17,6.40
2019,03,20,00,18,6.40
2019,03,20,00,19,6.50
2019,03,20,00,20,6.50
2019,03,20,00,21,6.60
2019,03,20,00,22,6.60
2019,03,20,00,23,6.70
2019,03,20,00,24,6.70
2019,03,20,00,25,6.70
2019,03,20,00,26,6.70
2019,03,20,00,27,6.70
2019,03,20,00,28,6.70
2019,03,20,00,29,6.70
2019,03,20,00,30,6.70
2019,03,20,00,31,6.70
2019,03,20,00,32,6.70
2019,03,20,00,33,6.70
2019,03,20,00,34,6.70
2019,03,20,00,35,6.70
2019,03,20,00,36,6.60
2019,03,20,00,37,6.60
2019,03,20,00,38,6.60
2019,03,20,00,39,6.70
2019,03,20,00,40,6.70
2019,03,20,00,41,6.70
2019,03,20,00,42,6.70
2019,03,20,00,43,6.70
2019,03,20,00,44,6.70
2019,03,20,00,45,6.70
2019,03,20,00,46,6.70
2019,03,20,00,47,6.70
2019,03,20,00,48,6.70
2019,03,20,00,49,6.70
2019,03,20,00,50,6.70
2019,03,20,00,51,6.70
2019,03,20,00,52,6.70
2019,03,20,00,53,6.80
2019,03,20,00,54,6.80
2019,03,20,00,55,6.80
2019,03,20,00,56,6.80
2019,03,20,00,57,6.80
2019,03,20,00,58,6.80
2019,03,20,00,59,6.80
2019,03,20,01,00,6.80
2019,03,20,01,01,6.80
2019,03,20,01,02,6.80
2019,03,20,01,03,6.80
2019,03,20,01,04,6.90
2019,03,20,01,05,7.00
2019,03,20,01,06,7.00
2019,03,20,01,07,7.00
2019,03,20,01,08,6.90
2019,03,20,01,09,6.80
2019,03,20,01,10,6.60
2019,03,20,01,11,6.50
2019,03,20,01,12,6.40
2019,03,20,01,13,6.30
2019,03,20,01,14,6.20
2019,03,20,01,15,6.20
2019,03,20,01,16,6.20
2019,03,20,01,17,6.20
2019,03,20,01,18,6.20
2019,03,20,01,19,6.20
2019,03,20,01,20,6.20
2019,03,20,01,21,6.20
2019,03,20,01,22,6.20
2019,03,20,01,23,6.30
2019,03,20,01,24,6.30
2019,03,20,01,25,6.40
2019,03,20,01,26,6.50
2019,03,20,01,27,6.60
2019,03,20,01,28,6.60
2019,03,20,01,29,6.70
2019,03,20,01,30,6.70
2019,03,20,01,31,6.70
2019,03,20,01,32,6.70
2019,03,20,01,33,6.60
2019,03,20,01,34,6.60
2019,03,20,01,35,6.60
2019,03,20,01,36,6.60
2019,03,20,01,37,6.60
2019,03,20,01,38,6.60
2019,03,20,01,39,6.60
2019,03,20,01,40,6.70
2019,03,20,01,41,6.70
2019,03,20,01,42,6.70
2019,03,20,01,43,6.70
2019,03,20,01,44,6.80
2019,03,20,01,45,6.80
2019,03,20,01,46,6.80
2019,03,20,01,47,6.80
2019,03,20,01,48,6.80
2019,03,20,01,49,6.80
2019,03,20,01,50,6.80
2019,03,20,01,51,6.70
2019,03,20,01,52,6.70
2019,03,20,01,53,6.70
2019,03,20,01,54,6.70
2019,03,20,01,55,6.70
2019,03,20,01,56,6.70
2019,03,20,01,57,6.70
2019,03,20,01,58,6.60
2019,03,20,01,59,6.60
2019,03,20,02,00,6.60
2019,03,20,02,01,6.50
2019,03,20,02,02,6.40
2019,03,20,02,03,6.40
2019,03,20,02,04,6.40
2019,03,20,02,05,6.40
2019,03,20,02,06,6.40
2019,03,20,02,07,6.40
2019,03,20,02,08,6.40
2019,03,20,02,09,6.30
2019,03,20,02,10,6.30
2019,03,20,02,11,6.20
2019,03,20,02,12,6.20
2019,03,20,02,13,6.10
2019,03,20,02,14,6.00
2019,03,20,02,15,5.90
2019,03,20,02,16,5.90
2019,03,20,02,17,5.90
2019,03,20,02,18,5.80
2019,03,20,02,19,5.90
2019,03,20,02,20,5.80
2019,03,20,02,21,5.80
2019,03,20,02,22,5.70
2019,03,20,02,23,5.60
2019,03,20,02,24,5.50
2019,03,20,02,25,5.40
2019,03,20,02,26,5.30
2019,03,20,02,27,5.30
2019,03,20,02,28,5.20
2019,03,20,02,29,5.20
2019,03,20,02,30,5.10
2019,03,20,02,31,5.00
2019,03,20,02,32,5.00
2019,03,20,02,33,4.90
2019,03,20,02,34,4.80
2019,03,20,02,35,4.80
2019,03,20,02,36,4.70
2019,03,20,02,37,4.70
2019,03,20,02,38,4.70
2019,03,20,02,39,4.70
2019,03,20,02,40,4.70
2019,03,20,02,41,4.70
2019,03,20,02,42,4.70
2019,03,20,02,43,4.70
2019,03,20,02,44,4.70
2019,03,20,02,45,4.70
2019,03,20,02,46,4.70
2019,03,20,02,47,4.60
2019,03,20,02,48,4.70
2019,03,20,02,49,4.70
2019,03,20,02,50,4.80
2019,03,20,02,51,4.80
2019,03,20,02,52,4.90
2019,03,20,02,53,4.90
2019,03,20,02,54,4.90
2019,03,20,02,55,4.80
2019,03,20,02,56,4.80
2019,03,20,02,57,4.80
2019,03,20,02,58,4.70
2019,03,20,02,59,4.70
2019,03,20,03,00,4.70
2019,03,20,03,01,4.60
2019,03,20,03,02,4.60
2019,03,20,03,03,4.50
2019,03,20,03,04,4.40
2019,03,20,03,05,4.40
2019,03,20,03,06,4.40
2019,03,20,03,07,4.30
2019,03,20,03,08,4.30
2019,03,20,03,09,4.30
2019,03,20,03,10,4.30
2019,03,20,03,11,4.30
2019,03,20,03,12,4.20
2019,03,20,03,13,4.20
2019,03,20,03,14,4.20
2019,03,20,03,15,4.10
2019,03,20,03,16,4.10
2019,03,20,03,17,4.10
2019,03,20,03,18,4.10
2019,03,20,03,19,4.00
2019,03,20,03,20,4.00
2019,03,20,03,21,4.00
2019,03,20,03,22,4.00
2019,03,20,03,23,4.00
2019,03,20,03,24,4.00
2019,03,20,03,25,4.00
2019,03,20,03,26,4.00
2019,03,20,03,27,4.00
2019,03,20,03,28,4.00
2019,03,20,03,29,3.90
2019,03,20,03,30,3.90
2019,03,20,03,31,3.90
2019,03,20,03,32,3.90
2019,03,20,03,33,3.90
2019,03,20,03,34,3.90
2019,03,20,03,35,3.80
2019,03,20,03,36,3.80
2019,03,20,03,37,3.80
2019,03,20,03,38,3.80
2019,03,20,03,39,3.80
2019,03,20,03,40,3.80
2019,03,20,03,41,3.70
2019,03,20,03,42,3.70
2019,03,20,03,43,3.70
2019,03,20,03,44,3.70
2019,03,20,03,45,3.70
2019,03,20,03,46,3.70
2019,03,20,03,47,3.70
2019,03,20,03,48,3.60
2019,03,20,03,49,3.60
2019,03,20,03,50,3.60
2019,03,20,03,51,3.60
2019,03,20,03,52,3.60
2019,03,20,03,53,3.60
2019,03,20,03,54,3.60
2019,03,20,03,55,3.60
2019,03,20,03,56,3.60
2019,03,20,03,57,3.60
2019,03,20,03,58,3.60
2019,03,20,03,59,3.60
2019,03,20,04,00,3.60
2019,03,20,04,01,3.60
2019,03,20,04,02,3.60
2019,03,20,04,03,3.60
2019,03,20,04,04,3.60
2019,03,20,04,05,3.60
2019,03,20,04,06,3.70
2019,03,20,04,07,3.70
2019,03,20,04,08,3.70
2019,03,20,04,09,3.70
2019,03,20,04,10,3.70
2019,03,20,04,11,3.70
2019,03,20,04,12,3.70
2019,03,20,04,13,3.70
2019,03,20,04,14,3.70
2019,03,20,04,15,3.70
2019,03,20,04,16,3.70
2019,03,20,04,17,3.70
2019,03,20,04,18,3.70
2019,03,20,04,19,3.80
2019,03,20,04,20,3.80
2019,03,20,04,21,3.80
2019,03,20,04,22,3.80
2019,03,20,04,23,3.80
2019,03,20,04,24,3.70
2019,03,20,04,25,3.70
2019,03,20,04,26,3.70
2019,03,20,04,27,3.70
2019,03,20,04,28,3.70
2019,03,20,04,29,3.80
2019,03,20,04,30,3.80
2019,03,20,04,31,3.90
2019,03,20,04,32,4.10
2019,03,20,04,33,4.30
2019,03,20,04,34,4.40
2019,03,20,04,35,4.50
2019,03,20,04,36,4.50
2019,03,20,04,37,4.60
2019,03,20,04,38,4.60
2019,03,20,04,39,4.60
2019,03,20,04,40,4.60
2019,03,20,04,41,4.60
2019,03,20,04,42,4.60
2019,03,20,04,43,4.60
2019,03,20,04,44,4.60
2019,03,20,04,45,4.50
2019,03,20,04,46,4.60
2019,03,20,04,47,4.60
2019,03,20,04,48,4.60
2019,03,20,04,49,4.60
2019,03,20,04,50,4.60
2019,03,20,04,51,4.60
2019,03,20,04,52,4.60
2019,03,20,04,53,4.60
2019,03,20,04,54,4.70
2019,03,20,04,55,4.70
2019,03,20,04,56,4.80
2019,03,20,04,57,4.80
2019,03,20,04,58,4.90
2019,03,20,04,59,4.90
2019,03,20,05,00,4.90
2019,03,20,05,01,4.90
2019,03,20,05,02,4.90
2019,03,20,05,03,4.80
2019,03,20,05,04,4.80
2019,03,20,05,05,4.80
2019,03,20,05,06,4.80
2019,03,20,05,07,4.80
2019,03,20,05,08,4.70
2019,03,20,05,09,4.70
2019,03,20,05,10,4.70
2019,03,20,05,11,4.70
2019,03,20,05,12,4.70
2019,03,20,05,13,4.60
2019,03,20,05,14,4.60
2019,03,20,05,15,4.50
2019,03,20,05,16,4.50
2019,03,20,05,17,4.40
2019,03,20,05,18,4.40
2019,03,20,05,19,4.40
2019,03,20,05,20,4.30
2019,03,20,05,21,4.30
2019,03,20,05,22,4.30
2019,03,20,05,23,4.20
2019,03,20,05,24,4.20
2019,03,20,05,25,4.10
2019,03,20,05,26,4.10
2019,03,20,05,27,4.00
2019,03,20,05,28,4.00
2019,03,20,05,29,3.90
2019,03,20,05,30,3.90
2019,03,20,05,31,3.90
2019,03,20,05,32,3.90
2019,03,20,05,33,3.80
2019,03,20,05,34,3.80
2019,03,20,05,35,3.80
2019,03,20,05,36,3.80
2019,03,20,05,37,3.70
2019,03,20,05,38,3.70
2019,03,20,05,39,3.70
2019,03,20,05,40,3.70
2019,03,20,05,41,3.70
2019,03,20,05,42,3.70
2019,03,20,05,43,3.70
2019,03,20,05,44,3.60
2019,03,20,05,45,3.60
2019,03,20,05,46,3.60
2019,03,20,05,47,3.50
2019,03,20,05,48,3.50
2019,03,20,05,49,3.50
2019,03,20,05,50,3.40
2019,03,20,05,51,3.40
2019,03,20,05,52,3.40
2019,03,20,05,53,3.40
2019,03,20,05,54,3.30
2019,03,20,05,55,3.30
2019,03,20,05,56,3.30
2019,03,20,05,57,3.30
2019,03,20,05,58,3.30
2019,03,20,05,59,3.30
2019,03,20,06,00,3.30
2019,03,20,06,01,3.30
2019,03,20,06,02,3.30
2019,03,20,06,03,3.30
2019,03,20,06,04,3.30
2019,03,20,06,05,3.30
2019,03,20,06,06,3.30
2019,03,20,06,07,3.20
2019,03,20,06,08,3.20
2019,03,20,06,09,3.20
2019,03,20,06,10,3.20
2019,03,20,06,11,3.20
2019,03,20,06,12,3.20
2019,03,20,06,13,3.20
2019,03,20,06,14,3.20
2019,03,20,06,15,3.20
2019,03,20,06,16,3.20
2019,03,20,06,17,3.20
2019,03,20,06,18,3.20
2019,03,20,06,19,3.20
2019,03,20,06,20,3.10
2019,03,20,06,21,3.10
2019,03,20,06,22,3.10
2019,03,20,06,23,3.10
2019,03,20,06,24,3.10
2019,03,20,06,25,3.10
2019,03,20,06,26,3.00
2019,03,20,06,27,3.00
2019,03,20,06,28,3.00
2019,03,20,06,29,2.90
2019,03,20,06,30,2.90
2019,03,20,06,31,2.90
2019,03,20,06,32,2.90
2019,03,20,06,33,2.90
2019,03,20,06,34,2.90
2019,03,20,06,35,2.80
2019,03,20,06,36,2.80
2019,03,20,06,37,2.80
2019,03,20,06,38,2.80
2019,03,20,06,39,2.90
2019,03,20,06,40,2.90
2019,03,20,06,41,2.80
2019,03,20,06,42,2.80
2019,03,20,06,43,2.80
2019,03,20,06,44,2.80
2019,03,20,06,45,2.80
2019,03,20,06,46,2.80
2019,03,20,06,47,2.80
2019,03,20,06,48,2.80
2019,03,20,06,49,2.70
2019,03,20,06,50,2.70
2019,03,20,06,51,2.70
2019,03,20,06,52,2.70
2019,03,20,06,53,2.70
2019,03,20,06,54,2.80
2019,03,20,06,55,2.80
2019,03,20,06,56,2.90
2019,03,20,06,57,3.00
2019,03,20,06,58,3.00
2019,03,20,06,59,3.00
2019,03,20,07,00,2.90
2019,03,20,07,01,2.90
2019,03,20,07,02,2.80
2019,03,20,07,03,2.80
2019,03,20,07,04,2.80
2019,03,20,07,05,2.90
2019,03,20,07,06,2.90
2019,03,20,07,07,2.90
2019,03,20,07,08,2.90
2019,03,20,07,09,2.90
2019,03,20,07,10,2.90
2019,03,20,07,11,3.00
2019,03,20,07,12,2.90
2019,03,20,07,13,2.90
2019,03,20,07,14,2.90
2019,03,20,07,15,2.90
2019,03,20,07,16,2.90
2019,03,20,07,17,2.90
2019,03,20,07,18,2.80
2019,03,20,07,19,2.80
2019,03,20,07,20,2.80
2019,03,20,07,21,2.80
2019,03,20,07,22,2.90
2019,03,20,07,23,3.00
2019,03,20,07,24,3.10
2019,03,20,07,25,3.20
2019,03,20,07,26,3.30
2019,03,20,07,27,3.40
2019,03,20,07,28,3.40
2019,03,20,07,29,3.50
2019,03,20,07,30,3.50
2019,03,20,07,31,3.60
2019,03,20,07,32,3.60
2019,03,20,07,33,3.60
2019,03,20,07,34,3.70
2019,03,20,07,35,3.60
2019,03,20,07,36,3.60
2019,03,20,07,37,3.60
2019,03,20,07,38,3.60
2019,03,20,07,39,3.60
2019,03,20,07,40,3.60
2019,03,20,07,41,3.60
2019,03,20,07,42,3.60
2019,03,20,07,43,3.70
2019,03,20,07,44,3.70
2019,03,20,07,45,3.60
2019,03,20,07,46,3.60
2019,03,20,07,47,3.60
2019,03,20,07,48,3.50
2019,03,20,07,49,3.50
2019,03,20,07,50,3.40
2019,03,20,07,51,3.40
2019,03,20,07,52,3.30
2019,03,20,07,53,3.30
2019,03,20,07,54,3.30
2019,03,20,07,55,3.20
2019,03,20,07,56,3.20
2019,03,20,07,57,3.20
2019,03,20,07,58,3.20
2019,03,20,07,59,3.10
2019,03,20,08,00,3.10
2019,03,20,08,01,3.10
2019,03,20,08,02,3.10
2019,03,20,08,03,3.10
2019,03,20,08,04,3.00
2019,03,20,08,05,3.00
2019,03,20,08,06,3.00
2019,03,20,08,07,3.10
2019,03,20,08,08,3.10
2019,03,20,08,09,3.10
2019,03,20,08,10,3.10
2019,03,20,08,11,3.00
2019,03,20,08,12,3.00
2019,03,20,08,13,3.00
2019,03,20,08,14,3.00
2019,03,20,08,15,3.00
2019,03,20,08,16,3.00
2019,03,20,08,17,2.90
2019,03,20,08,18,2.90
2019,03,20,08,19,2.90
2019,03,20,08,20,2.90
2019,03,20,08,21,2.90
2019,03,20,08,22,2.90
2019,03,20,08,23,2.90
2019,03,20,08,24,2.90
2019,03,20,08,25,2.90
2019,03,20,08,26,2.90
2019,03,20,08,27,2.90
2019,03,20,08,28,2.90
2019,03,20,08,29,2.90
2019,03,20,08,30,2.90
2019,03,20,08,31,2.90
2019,03,20,08,32,3.00
2019,03,20,08,33,3.00
2019,03,20,08,34,3.00
2019,03,20,08,35,3.00
2019,03,20,08,36,3.10
2019,03,20,08,37,3.10
2019,03,20,08,38,3.10
2019,03,20,08,39,3.10
2019,03,20,08,40,3.10
2019,03,20,08,41,3.10
2019,03,20,08,42,3.10
2019,03,20,08,43,3.10
2019,03,20,08,44,3.10
2019,03,20,08,45,3.10
2019,03,20,08,46,3.00
2019,03,20,08,47,3.00
2019,03,20,08,48,3.00
2019,03,20,08,49,3.00
2019,03,20,08,50,3.00
2019,03,20,08,51,3.00
2019,03,20,08,52,3.00
2019,03,20,08,53,3.00
2019,03,20,08,54,3.00
2019,03,20,08,55,3.00
2019,03,20,08,56,3.00
2019,03,20,08,57,3.00
2019,03,20,08,58,3.00
2019,03,20,08,59,3.00
2019,03,20,09,00,3.00
2019,03,20,09,01,3.00
2019,03,20,09,02,3.00
2019,03,20,09,03,2.90
2019,03,20,09,04,2.90
2019,03,20,09,05,2.90
2019,03,20,09,06,2.90
2019,03,20,09,07,2.90
2019,03,20,09,08,2.90
2019,03,20,09,09,2.90
2019,03,20,09,10,2.90
2019,03,20,09,11,2.90
2019,03,20,09,12,2.90
2019,03,20,09,13,3.00
2019,03,20,09,14,3.10
2019,03,20,09,15,3.10
2019,03,20,09,16,3.10
2019,03,20,09,17,3.10
2019,03,20,09,18,3.10
2019,03,20,09,19,3.10
2019,03,20,09,20,3.10
2019,03,20,09,21,3.10
2019,03,20,09,22,3.10
2019,03,20,09,23,3.10
2019,03,20,09,24,3.10
2019,03,20,09,25,3.20
2019,03,20,09,26,3.20
2019,03,20,09,27,3.20
2019,03,20,09,28,3.20
2019,03,20,09,29,3.10
2019,03,20,09,30,3.10
2019,03,20,09,31,3.10
2019,03,20,09,32,3.10
2019,03,20,09,33,3.10
2019,03,20,09,34,3.10
2019,03,20,09,35,3.10
2019,03,20,09,36,3.10
2019,03,20,09,37,3.10
2019,03,20,09,38,3.20
2019,03,20,09,39,3.20
2019,03,20,09,40,3.20
2019,03,20,09,41,3.20
2019,03,20,09,42,3.20
2019,03,20,09,43,3.20
2019,03,20,09,44,3.20
2019,03,20,09,45,3.20
2019,03,20,09,46,3.20
2019,03,20,09,47,3.30
2019,03,20,09,48,3.30
2019,03,20,09,49,3.40
2019,03,20,09,50,3.50
2019,03,20,09,51,3.50
2019,03,20,09,52,3.50
2019,03,20,09,53,3.50
2019,03,20,09,54,3.50
2019,03,20,09,55,3.50
2019,03,20,09,56,3.50
2019,03,20,09,57,3.50
2019,03,20,09,58,3.50
2019,03,20,09,59,3.60
2019,03,20,10,00,3.70
2019,03,20,10,01,3.80
2019,03,20,10,02,3.80
2019,03,20,10,03,3.90
2019,03,20,10,04,3.90
2019,03,20,10,05,4.10
2019,03,20,10,06,4.20
2019,03,20,10,07,4.40
2019,03,20,10,08,4.50
2019,03,20,10,09,4.60
2019,03,20,10,10,4.80
2019,03,20,10,11,5.00
2019,03,20,10,12,5.20
2019,03,20,10,13,5.40
2019,03,20,10,14,5.50
2019,03,20,10,15,5.70
2019,03,20,10,16,5.80
2019,03,20,10,17,5.90
2019,03,20,10,18,6.00
2019,03,20,10,19,6.20
2019,03,20,10,20,6.40
2019,03,20,10,21,6.50
2019,03,20,10,22,6.60
2019,03,20,10,23,6.70
2019,03,20,10,24,6.80
2019,03,20,10,25,6.80
2019,03,20,10,26,6.80
2019,03,20,10,27,6.90
2019,03,20,10,28,6.90
2019,03,20,10,29,6.90
2019,03,20,10,30,7.00
2019,03,20,10,31,7.00
2019,03,20,10,32,7.00
2019,03,20,10,33,7.00
2019,03,20,10,34,7.00
2019,03,20,10,35,7.00
2019,03,20,10,36,7.00
2019,03,20,10,37,7.00
2019,03,20,10,38,7.00
2019,03,20,10,39,7.00
2019,03,20,10,40,7.00
2019,03,20,10,41,7.00
2019,03,20,10,42,7.00
2019,03,20,10,43,7.00
2019,03,20,10,44,7.00
2019,03,20,10,45,7.00
2019,03,20,10,46,7.10
2019,03,20,10,47,7.10
2019,03,20,10,48,7.10
2019,03,20,10,49,7.20
2019,03,20,10,50,7.20
2019,03,20,10,51,7.30
2019,03,20,10,52,7.40
2019,03,20,10,53,7.50
2019,03,20,10,54,7.60
2019,03,20,10,55,7.70
2019,03,20,10,56,7.80
2019,03,20,10,57,8.00
2019,03,20,10,58,8.20
2019,03,20,10,59,8.30
2019,03,20,11,00,8.40
2019,03,20,11,01,8.60
2019,03,20,11,02,8.70
2019,03,20,11,03,8.80
2019,03,20,11,04,9.00
2019,03,20,11,05,9.10
2019,03,20,11,06,9.20
2019,03,20,11,07,9.40
2019,03,20,11,08,9.60
2019,03,20,11,09,9.80
2019,03,20,11,10,9.90
2019,03,20,11,11,10.10
2019,03,20,11,12,10.20
2019,03,20,11,13,10.40
2019,03,20,11,14,10.50
2019,03,20,11,15,10.60
2019,03,20,11,16,10.80
2019,03,20,11,17,10.80
2019,03,20,11,18,10.90
2019,03,20,11,19,11.00
2019,03,20,11,20,11.10
2019,03,20,11,21,11.30
2019,03,20,11,22,11.40
2019,03,20,11,23,11.50
2019,03,20,11,24,11.60
2019,03,20,11,25,11.80
2019,03,20,11,26,11.90
2019,03,20,11,27,12.10
2019,03,20,11,28,12.30
2019,03,20,11,29,12.40
2019,03,20,11,30,12.60
2019,03,20,11,31,12.70
2019,03,20,11,32,12.90
2019,03,20,11,33,13.10
2019,03,20,11,34,13.20
2019,03,20,11,35,13.30
2019,03,20,11,36,13.40
2019,03,20,11,37,13.60
2019,03,20,11,38,13.70
2019,03,20,11,39,13.80
2019,03,20,11,40,13.90
2019,03,20,11,41,13.90
2019,03,20,11,42,14.00
2019,03,20,11,43,14.10
2019,03,20,11,44,14.10
2019,03,20,11,45,14.20
2019,03,20,11,46,14.20
2019,03,20,11,47,14.30
2019,03,20,11,48,14.30
2019,03,20,11,49,14.40
2019,03,20,11,50,14.50
2019,03,20,11,51,14.60
2019,03,20,11,52,14.70
2019,03,20,11,53,14.80
2019,03,20,11,54,14.90
2019,03,20,11,55,15.00
2019,03,20,11,56,15.20
2019,03,20,11,57,15.30
2019,03,20,11,58,15.40
2019,03,20,11,59,15.60
2019,03,20,12,00,15.70
2019,03,20,12,01,15.80
2019,03,20,12,02,15.90
2019,03,20,12,03,16.10
2019,03,20,12,04,16.20
2019,03,20,12,05,16.30
2019,03,20,12,06,16.40
2019,03,20,12,07,16.50
2019,03,20,12,08,16.60
2019,03,20,12,09,16.70
2019,03,20,12,10,16.80
2019,03,20,12,11,16.90
2019,03,20,12,12,16.90
2019,03,20,12,13,17.00
2019,03,20,12,14,17.00
2019,03,20,12,15,17.10
2019,03,20,12,16,17.10
2019,03,20,12,17,17.20
2019,03,20,12,18,17.20
2019,03,20,12,19,17.20
2019,03,20,12,20,17.20
2019,03,20,12,21,17.10
2019,03,20,12,22,17.10
2019,03,20,12,23,17.10
2019,03,20,12,24,17.00
2019,03,20,12,25,16.90
2019,03,20,12,26,16.70
2019,03,20,12,27,16.60
2019,03,20,12,28,16.40
2019,03,20,12,29,16.20
2019,03,20,12,30,16.00
2019,03,20,12,31,15.90
2019,03,20,12,32,15.70
2019,03,20,12,33,15.70
2019,03,20,12,34,15.60
2019,03,20,12,35,15.60
2019,03,20,12,36,15.50
2019,03,20,12,37,15.50
2019,03,20,12,38,15.40
2019,03,20,12,39,15.40
2019,03,20,12,40,15.50
2019,03,20,12,41,15.50
2019,03,20,12,42,15.60
2019,03,20,12,43,15.60
2019,03,20,12,44,15.70
2019,03,20,12,45,15.90
2019,03,20,12,46,16.00
2019,03,20,12,47,16.20
2019,03,20,12,48,16.40
2019,03,20,12,49,16.60
2019,03,20,12,50,16.80
2019,03,20,12,51,16.90
2019,03,20,12,52,17.00
2019,03,20,12,53,17.20
2019,03,20,12,54,17.40
2019,03,20,12,55,17.50
2019,03,20,12,56,17.60
2019,03,20,12,57,17.70
2019,03,20,12,58,17.80
2019,03,20,12,59,18.00
2019,03,20,13,00,18.20
2019,03,20,13,01,18.30
2019,03,20,13,02,18.50
2019,03,20,13,03,18.70
2019,03,20,13,04,18.80
2019,03,20,13,05,19.00
2019,03,20,13,06,19.20
2019,03,20,13,07,19.40
2019,03,20,13,08,19.50
2019,03,20,13,09,19.70
2019,03,20,13,10,19.80
2019,03,20,13,11,19.90
2019,03,20,13,12,19.90
2019,03,20,13,13,20.00
2019,03,20,13,14,20.00
2019,03,20,13,15,20.10
2019,03,20,13,16,20.10
2019,03,20,13,17,20.20
2019,03,20,13,18,20.20
2019,03,20,13,19,20.20
2019,03,20,13,20,20.30
2019,03,20,13,21,20.40
2019,03,20,13,22,20.50
2019,03,20,13,23,20.50
2019,03,20,13,24,20.60
2019,03,20,13,25,20.70
2019,03,20,13,26,20.80
2019,03,20,13,27,20.90
2019,03,20,13,28,21.00
2019,03,20,13,29,21.10
2019,03,20,13,30,21.20
2019,03,20,13,31,21.20
2019,03,20,13,32,21.30
2019,03,20,13,33,21.30
2019,03,20,13,34,21.40
2019,03,20,13,35,21.40
2019,03,20,13,36,21.40
2019,03,20,13,37,21.30
2019,03,20,13,38,21.30
2019,03,20,13,39,21.30
2019,03,20,13,40,21.20
2019,03,20,13,41,21.20
2019,03,20,13,42,21.10
2019,03,20,13,43,21.10
2019,03,20,13,44,21.00
2019,03,20,13,45,20.90
2019,03,20,13,46,20.80
2019,03,20,13,47,20.80
2019,03,20,13,48,20.80
2019,03,20,13,49,20.80
2019,03,20,13,50,20.80
2019,03,20,13,51,20.80
2019,03,20,13,52,20.90
2019,03,20,13,53,20.90
2019,03,20,13,54,20.90
2019,03,20,13,55,20.80
2019,03,20,13,56,20.80
2019,03,20,13,57,20.80
2019,03,20,13,58,20.70
2019,03,20,13,59,20.70
2019,03,20,14,00,20.70
2019,03,20,14,01,20.60
2019,03,20,14,02,20.60
2019,03,20,14,03,20.50
2019,03,20,14,04,20.50
2019,03,20,14,05,20.50
2019,03,20,14,06,20.60
2019,03,20,14,07,20.60
2019,03,20,14,08,20.60
2019,03,20,14,09,20.70
2019,03,20,14,10,20.70
2019,03,20,14,11,20.70
2019,03,20,14,12,20.70
2019,03,20,14,13,20.70
2019,03,20,14,14,20.80
2019,03,20,14,15,20.80
2019,03,20,14,16,20.90
2019,03,20,14,17,21.00
2019,03,20,14,18,21.10
2019,03,20,14,19,21.10
2019,03,20,14,20,21.20
2019,03,20,14,21,21.30
2019,03,20,14,22,21.30
2019,03,20,14,23,21.30
2019,03,20,14,24,21.30
2019,03,20,14,25,21.30
2019,03,20,14,26,21.20
2019,03,20,14,27,21.20
2019,03,20,14,28,21.20
2019,03,20,14,29,21.20
2019,03,20,14,30,21.20
2019,03,20,14,31,21.20
2019,03,20,14,32,21.30
2019,03,20,14,33,21.40
2019,03,20,14,34,21.50
2019,03,20,14,35,21.50
2019,03,20,14,36,21.60
2019,03,20,14,37,21.70
2019,03,20,14,38,21.80
2019,03,20,14,39,21.80
2019,03,20,14,40,21.80
2019,03,20,14,41,21.70
2019,03,20,14,42,21.60
2019,03,20,14,43,21.50
2019,03,20,14,44,21.40
2019,03,20,14,45,21.30
2019,03,20,14,46,21.20
2019,03,20,14,47,21.10
2019,03,20,14,48,20.90
2019,03,20,14,49,20.90
2019,03,20,14,50,20.80
2019,03,20,14,51,20.70
2019,03,20,14,52,20.60
2019,03,20,14,53,20.50
2019,03,20,14,54,20.40
2019,03,20,14,55,20.30
2019,03,20,14,56,20.20
2019,03,20,14,57,20.20
2019,03,20,14,58,20.10
2019,03,20,14,59,20.10
2019,03,20,15,00,20.10
2019,03,20,15,01,20.10
2019,03,20,15,02,20.10
2019,03,20,15,03,20.20
2019,03,20,15,04,20.30
2019,03,20,15,05,20.50
2019,03,20,15,06,20.60
2019,03,20,15,07,20.80
2019,03,20,15,08,21.00
2019,03,20,15,09,21.10
2019,03,20,15,10,21.20
2019,03,20,15,11,21.20
2019,03,20,15,12,21.30
2019,03,20,15,13,21.30
2019,03,20,15,14,21.30
2019,03,20,15,15,21.40
2019,03,20,15,16,21.40
2019,03,20,15,17,21.50
2019,03,20,15,18,21.50
2019,03,20,15,19,21.60
2019,03,20,15,20,21.60
2019,03,20,15,21,21.70
2019,03,20,15,22,21.70
2019,03,20,15,23,21.80
2019,03,20,15,24,21.80
2019,03,20,15,25,21.90
2019,03,20,15,26,21.90
2019,03,20,15,27,21.90
2019,03,20,15,28,22.00
2019,03,20,15,29,22.00
2019,03,20,15,30,22.10
2019,03,20,15,31,22.10
2019,03,20,15,32,22.10
2019,03,20,15,33,22.10
2019,03,20,15,34,22.10
2019,03,20,15,35,22.20
2019,03,20,15,36,22.20
2019,03,20,15,37,22.20
2019,03,20,15,38,22.10
2019,03,20,15,39,22.10
2019,03,20,15,40,22.00
2019,03,20,15,41,22.00
2019,03,20,15,42,21.90
2019,03,20,15,43,21.90
2019,03,20,15,44,21.90
2019,03,20,15,45,21.90
2019,03,20,15,46,21.80
2019,03,20,15,47,21.80
2019,03,20,15,48,21.70
2019,03,20,15,49,21.50
2019,03,20,15,50,21.40
2019,03,20,15,51,21.20
2019,03,20,15,52,21.10
2019,03,20,15,53,20.90
2019,03,20,15,54,20.80
2019,03,20,15,55,20.80
2019,03,20,15,56,20.70
2019,03,20,15,57,20.70
2019,03,20,15,58,20.60
2019,03,20,15,59,20.60
2019,03,20,16,00,20.40
2019,03,20,16,01,20.40
2019,03,20,16,02,20.30
2019,03,20,16,03,20.10
2019,03,20,16,04,20.00
2019,03,20,16,05,19.80
2019,03,20,16,06,19.70
2019,03,20,16,07,19.60
2019,03,20,16,08,19.60
2019,03,20,16,09,19.50
2019,03,20,16,10,19.50
2019,03,20,16,11,19.40
2019,03,20,16,12,19.40
2019,03,20,16,13,19.40
2019,03,20,16,14,19.40
2019,03,20,16,15,19.40
2019,03,20,16,16,19.50
2019,03,20,16,17,19.50
2019,03,20,16,18,19.40
2019,03,20,16,19,19.50
2019,03,20,16,20,19.50
2019,03,20,16,21,19.50
2019,03,20,16,22,19.60
2019,03,20,16,23,19.60
2019,03,20,16,24,19.60
2019,03,20,16,25,19.50
2019,03,20,16,26,19.50
2019,03,20,16,27,19.50
2019,03,20,16,28,19.60
2019,03,20,16,29,19.60
2019,03,20,16,30,19.60
2019,03,20,16,31,19.70
2019,03,20,16,32,19.70
2019,03,20,16,33,19.70
2019,03,20,16,34,19.70
2019,03,20,16,35,19.60
2019,03,20,16,36,19.60
2019,03,20,16,37,19.50
2019,03,20,16,38,19.40
2019,03,20,16,39,19.40
2019,03,20,16,40,19.40
2019,03,20,16,41,19.30
2019,03,20,16,42,19.30
2019,03,20,16,43,19.30
2019,03,20,16,44,19.30
2019,03,20,16,45,19.30
2019,03,20,16,46,19.30
2019,03,20,16,47,19.30
2019,03,20,16,48,19.30
2019,03,20,16,49,19.40
2019,03,20,16,50,19.40
2019,03,20,16,51,19.30
2019,03,20,16,52,19.30
2019,03,20,16,53,19.30
2019,03,20,16,54,19.30
2019,03,20,16,55,19.30
2019,03,20,16,56,19.30
2019,03,20,16,57,19.30
2019,03,20,16,58,19.30
2019,03,20,16,59,19.20
2019,03,20,17,00,19.10
2019,03,20,17,01,18.90
2019,03,20,17,02,18.80
2019,03,20,17,03,18.70
2019,03,20,17,04,18.60
2019,03,20,17,05,18.40
2019,03,20,17,06,18.30
2019,03,20,17,07,18.20
2019,03,20,17,08,18.10
2019,03,20,17,09,18.10
2019,03,20,17,10,18.10
2019,03,20,17,11,18.00
2019,03,20,17,12,18.00
2019,03,20,17,13,17.90
2019,03,20,17,14,17.80
2019,03,20,17,15,17.80
2019,03,20,17,16,17.70
2019,03,20,17,17,17.60
2019,03,20,17,18,17.60
2019,03,20,17,19,17.50
2019,03,20,17,20,17.50
2019,03,20,17,21,17.50
2019,03,20,17,22,17.50
2019,03,20,17,23,17.60
2019,03,20,17,24,17.60
2019,03,20,17,25,17.60
2019,03,20,17,26,17.60
2019,03,20,17,27,17.70
2019,03,20,17,28,17.70
2019,03,20,17,29,17.80
2019,03,20,17,30,17.80
2019,03,20,17,31,17.80
2019,03,20,17,32,17.80
2019,03,20,17,33,17.90
2019,03,20,17,34,17.90
2019,03,20,17,35,18.00
2019,03,20,17,36,18.00
2019,03,20,17,37,18.00
2019,03,20,17,38,18.00
2019,03,20,17,39,18.00
2019,03,20,17,40,18.00
2019,03,20,17,41,18.00
2019,03,20,17,42,18.00
2019,03,20,17,43,18.00
2019,03,20,17,44,18.00
2019,03,20,17,45,18.10
2019,03,20,17,46,18.10
2019,03,20,17,47,18.10
2019,03,20,17,48,18.10